sat.trackr.live / text

‹ back to catalog

STARLINK-4387

NORAD 53490 · 2022-099AB

PAYLOAD ACTIVE UNKNOWN

§ Identity

Operator
Country
US
Launch date
2022-08-12
Launch site
AFWTR
Launch vehicle
Mass (kg)
RCS (m²)

Purposes: comms

External: N2YO · Heavens-Above · Gunter

§ Orbital elements

Epoch: 2026-09-20T04:00:03.000096Z

Period
90.27 min
Inclination
97.6069°
Eccentricity
0.0001693
Mean motion
15.95260056 rev/d
Perigee alt
286.5 km
Apogee alt
288.7 km
Semi-major
6,665.7 km
B*
2.3195e-3
RAAN
31.9766°
Arg perigee
75.1695°
Mean anomaly
288.1430°
Rev number
597

§ Raw data

STARLINK-43871 53490U 22099AB  26263.16670139  .00900832  36353-3  23195-2 0  99922 53490  97.6069  31.9766 0001693  75.1695 288.1430 15.95260056  5970

JSON: /api/v1/satellites/53490 · /tle

For live sub-satellite position, see the globe view (requires WebGL).

§ Visibility from observer

Set your observer location to see the next 7 days of passes ≥ 10°. The values pass through the URL so the page stays shareable.

No JS? Fill the form by hand. The geolocation button needs JavaScript.